Forestdale, MA

8:38 AM EST on February 12, 2016 (GMT -0500)
Cape Cod Coast Guard Air Station

Weather History for KFMH - December, 2012

Change the Weather History Date:

Wednesday, December 5, 2012

  Actual Average Record
Temperature  
Mean Temperature 47 °F -  
Max Temperature 57 °F - - ()
Min Temperature 35 °F - - ()
Degree Days  
Heating Degree Days 18    
Moisture  
Dew Point 39 °F    
Average Humidity 70    
Maximum Humidity 100    
Minimum Humidity 42    
Precipitation  
Precipitation 0.01 in - - ()
Sea Level Pressure  
Sea Level Pressure 29.96 in    
Wind  
Wind Speed 14 mph (West)    
Max Wind Speed 24 mph    
Max Gust Speed 34 mph    
Visibility 10 miles    
Events Rain    
T = Trace of Precipitation, MM = Missing Value Source: NWS Daily Summary

Daily Weather History Graph

Daily Weather History Graph

Search for Another Location

Airport or City:

Trip Planner

Search our weather history database for the weather conditions in past years. The results will help you decide how hot, cold, wet, or windy it might be!

Date:

Astronomy

Dec. 05, 2012 Rise Set
Actual Time 6:53 AM EST 4:11 PM EST
Civil Twilight 6:22 AM EST 4:42 PM EST
Nautical Twilight 5:48 AM EST 5:17 PM EST
Astronomical Twilight 5:14 AM EST 5:51 PM EST
Moon 11:02 PM EST (12/5) 11:12 AM EST (12/5)
Length of Visible Light 10h 20m
Length of Day
9h 17m
Waning Gibbous, 60% of the Moon is Illuminated
Dec 5
Waning Gibbous
Dec 6
Last Quarter
Dec 13
New
Dec 20
First Quarter
Dec 28
Full

Hourly Weather History & Observations

Time (EST) Temp. Windchill Dew Point Humidity Pressure Visibility Wind Dir Wind Speed Gust Speed Precip Events Conditions
12:15 AM 53.6 °F - 50.0 °F 88% 30.04 in 10.0 mi South 11.5 mph - N/A   Unknown
12:35 AM 53.6 °F - 51.8 °F 94% 30.03 in 10.0 mi South 10.4 mph - N/A   Unknown
12:55 AM 55.4 °F - 53.6 °F 94% 30.02 in 10.0 mi SSW 17.3 mph - N/A   Unknown
1:15 AM 55.4 °F - 53.6 °F 94% 30.01 in 10.0 mi SSW 16.1 mph 23.0 mph N/A   Unknown
1:35 AM 55.4 °F - 53.6 °F 94% 30.00 in 10.0 mi SSW 17.3 mph 25.3 mph N/A   Unknown
1:55 AM 55.4 °F - 53.6 °F 94% 29.99 in 10.0 mi SSW 16.1 mph 24.2 mph N/A   Unknown
2:15 AM 55.4 °F - 53.6 °F 94% 29.98 in 9.0 mi SSW 17.3 mph 23.0 mph N/A   Unknown
2:35 AM 55.4 °F - 53.6 °F 94% 29.97 in 9.0 mi SSW 20.7 mph 26.5 mph N/A   Unknown
2:55 AM 57.2 °F - 55.4 °F 94% 29.95 in 9.0 mi SSW 19.6 mph 25.3 mph N/A   Unknown
3:15 AM 57.2 °F - 55.4 °F 94% 29.93 in 10.0 mi SSW 18.4 mph 26.5 mph N/A   Unknown
3:35 AM 57.2 °F - 55.4 °F 94% 29.92 in 10.0 mi SSW 16.1 mph 25.3 mph N/A   Unknown
3:55 AM 55.4 °F - 53.6 °F 94% 29.91 in 10.0 mi SSW 17.3 mph 21.9 mph N/A   Unknown
4:15 AM 55.4 °F - 53.6 °F 94% 29.90 in 10.0 mi SSW 16.1 mph 21.9 mph N/A   Unknown
4:35 AM 55.4 °F - 53.6 °F 94% 29.89 in 10.0 mi SSW 17.3 mph 24.2 mph N/A   Unknown
4:55 AM 55.4 °F - 53.6 °F 94% 29.89 in 10.0 mi SW 16.1 mph 20.7 mph N/A   Unknown
5:15 AM 57.2 °F - 53.6 °F 88% 29.89 in 10.0 mi SW 18.4 mph 27.6 mph N/A   Unknown
5:35 AM 57.2 °F - 53.6 °F 88% 29.88 in 10.0 mi SW 19.6 mph 27.6 mph N/A   Unknown
5:55 AM 57.2 °F - 53.6 °F 88% 29.89 in 10.0 mi SW 19.6 mph 31.1 mph N/A   Unknown
6:15 AM 57.2 °F - 53.6 °F 88% 29.89 in 9.0 mi WSW 24.2 mph 34.5 mph N/A   Unknown
6:35 AM 55.4 °F - 53.6 °F 94% 29.89 in 2.5 mi WSW 17.3 mph 23.0 mph N/A   Mist
6:55 AM 53.6 °F - 53.6 °F 100% 29.89 in 8.0 mi WSW 17.3 mph 24.2 mph N/A   Unknown
7:15 AM 53.6 °F - 51.8 °F 94% 29.90 in 7.0 mi WSW 16.1 mph 23.0 mph N/A   Unknown
7:35 AM 53.6 °F - 50.0 °F 88% 29.90 in 7.0 mi WSW 12.7 mph - N/A   Unknown
7:55 AM 53.6 °F - 50.0 °F 88% 29.91 in 2.5 mi WSW 9.2 mph - 0.01 in Rain Light Rain
9:35 AM 53.6 °F - 51.8 °F 94% 29.93 in 7.0 mi WNW 8.1 mph - N/A   Unknown
9:55 AM 51.8 °F - 50.0 °F 94% 29.93 in 10.0 mi NW 9.2 mph - N/A   Unknown
10:15 AM 51.8 °F - 48.2 °F 88% 29.92 in 10.0 mi NW 9.2 mph - N/A   Unknown
10:35 AM 53.6 °F - 46.4 °F 77% 29.91 in 10.0 mi WNW 9.2 mph 16.1 mph N/A   Unknown
10:55 AM 53.6 °F - 46.4 °F 77% 29.91 in - NW 8.1 mph - N/A   Unknown
11:15 AM 55.4 °F - 44.6 °F 67% 29.90 in 10.0 mi WNW 13.8 mph - N/A   Unknown
11:35 AM 55.4 °F - 42.8 °F 63% 29.90 in 10.0 mi West 11.5 mph - N/A   Unknown
11:55 AM 55.4 °F - 41.0 °F 58% 29.89 in 10.0 mi NW 13.8 mph 17.3 mph N/A   Unknown
12:15 PM 53.6 °F - 37.4 °F 54% 29.89 in 10.0 mi WNW 11.5 mph - N/A   Unknown
12:35 PM 53.6 °F - 37.4 °F 54% 29.89 in 10.0 mi WNW 12.7 mph 19.6 mph N/A   Unknown
12:55 PM 53.6 °F - 37.4 °F 54% 29.89 in 10.0 mi NW 13.8 mph - N/A   Unknown
1:15 PM 53.6 °F - 37.4 °F 54% 29.89 in 10.0 mi WNW 13.8 mph 18.4 mph N/A   Unknown
1:35 PM 53.6 °F - 35.6 °F 51% 29.89 in 10.0 mi WNW 12.7 mph - N/A   Unknown
1:55 PM 53.6 °F - 35.6 °F 51% 29.89 in 10.0 mi NW 13.8 mph 18.4 mph N/A   Unknown
2:15 PM 51.8 °F - 33.8 °F 50% 29.89 in 10.0 mi WNW 12.7 mph 18.4 mph N/A   Unknown
2:35 PM 50.0 °F - 33.8 °F 54% 29.90 in 10.0 mi WNW 8.1 mph - N/A   Unknown
2:55 PM 50.0 °F - 35.6 °F 58% 29.90 in 10.0 mi West 9.2 mph - N/A   Unknown
3:15 PM 51.8 °F - 35.6 °F 54% 29.91 in 10.0 mi NW 10.4 mph - N/A   Unknown
3:35 PM 50.0 °F - 33.8 °F 54% 29.92 in 10.0 mi WNW 9.2 mph - N/A   Unknown
3:55 PM 48.2 °F - 33.8 °F 58% 29.92 in 10.0 mi WNW 12.7 mph - N/A   Unknown
4:15 PM 48.2 °F - 32.0 °F 54% 29.93 in 10.0 mi NW 10.4 mph - N/A   Clear
4:55 PM 44.6 °F 40.7 °F 32.0 °F 61% 29.95 in 10.0 mi WNW 6.9 mph - N/A   Clear
5:15 PM 46.4 °F 39.5 °F 32.0 °F 57% 29.95 in 10.0 mi WNW 17.3 mph 23.0 mph N/A   Clear
5:35 PM 44.6 °F 37.2 °F 28.4 °F 53% 29.97 in 10.0 mi WNW 17.3 mph 25.3 mph N/A   Clear
5:55 PM 42.8 °F 35.1 °F 28.4 °F 57% 29.99 in 10.0 mi WNW 16.1 mph 27.6 mph N/A   Clear
6:15 PM 41.0 °F 32.2 °F 26.6 °F 57% 30.00 in 10.0 mi WNW 18.4 mph 29.9 mph N/A   Clear
6:35 PM 41.0 °F 32.8 °F 26.6 °F 57% 30.01 in 10.0 mi WNW 16.1 mph 24.2 mph N/A   Clear
6:55 PM 39.2 °F 31.2 °F 24.8 °F 56% 30.02 in 10.0 mi NW 13.8 mph 25.3 mph N/A   Clear
7:15 PM 39.2 °F 31.2 °F 24.8 °F 56% 30.03 in 10.0 mi NW 13.8 mph 19.6 mph N/A   Clear
7:35 PM 39.2 °F 33.6 °F 24.8 °F 56% 30.03 in 10.0 mi NW 8.1 mph - N/A   Clear
7:55 PM 37.4 °F 30.8 °F 24.8 °F 60% 30.03 in 10.0 mi WNW 9.2 mph - N/A   Clear
8:15 PM 37.4 °F 30.8 °F 24.8 °F 60% 30.03 in 10.0 mi NW 9.2 mph - N/A   Clear
8:35 PM 39.2 °F 30.2 °F 23.0 °F 52% 30.04 in 10.0 mi NW 17.3 mph 20.7 mph N/A   Clear
8:55 PM 39.2 °F 32.5 °F 21.2 °F 49% 30.04 in 10.0 mi NW 10.4 mph 23.0 mph N/A   Clear
9:15 PM 37.4 °F 29.8 °F 21.2 °F 52% 30.04 in 10.0 mi NW 11.5 mph 20.7 mph N/A   Clear
9:35 PM 39.2 °F 31.6 °F 21.2 °F 49% 30.05 in 10.0 mi NNW 12.7 mph 16.1 mph N/A   Clear
9:55 PM 39.2 °F 32.0 °F 21.2 °F 49% 30.06 in 10.0 mi NNW 11.5 mph 16.1 mph N/A   Clear
10:15 PM 37.4 °F 28.9 °F 19.4 °F 48% 30.07 in 10.0 mi NNW 13.8 mph 23.0 mph N/A   Clear
10:35 PM 37.4 °F 30.8 °F 21.2 °F 52% 30.08 in 10.0 mi NNW 9.2 mph 18.4 mph N/A   Unknown
10:55 PM 37.4 °F 29.8 °F 23.0 °F 56% 30.08 in 10.0 mi NNW 11.5 mph 20.7 mph N/A   Clear
11:15 PM 37.4 °F 29.8 °F 23.0 °F 56% 30.10 in 10.0 mi NNW 11.5 mph 17.3 mph N/A   Clear
11:35 PM 37.4 °F 28.5 °F 21.2 °F 52% 30.10 in 10.0 mi NW 15.0 mph 21.9 mph N/A   Clear
11:55 PM 35.6 °F 25.9 °F 19.4 °F 52% 30.10 in 10.0 mi NW 16.1 mph 24.2 mph N/A   Clear